Theta_e
308 309 310 310 312 313 314 318 317 317 319 318 318 317 317 317 318 314 308 314 319 325 324 316 317 313 312 309 311 309 300 296 297 294 294 298 298 304 314 308 310 312 312 314 329
308 310 311 311 313 313 316 317 316 315 316 318 317 317 316 317 312 309 317 319 322 326 316 313 312 311 305 306 307 305 299 299 297 296 295 300 300 298 306 308 309 311 313 315 319
308 310 311 312 313 313 318 318 317 317 316 316 316 316 317 316 307 306 320 319 323 326 318 315 315 310 303 305 303 304 297 296 296 300 298 300 299 300 301 298 302 306 309 311 313
307 309 310 312 312 313 317 318 316 315 313 314 316 317 317 313 295 308 320 320 324 322 315 315 312 306 302 300 304 300 300 299 300 299 298 299 300 298 299 298 306 307 310 310 309
306 308 310 310 311 312 316 316 315 314 314 314 317 318 313 305 302 314 320 320 318 315 310 312 309 306 301 302 302 299 299 299 299 299 299 301 300 300 300 304 306 309 310 308 308
306 307 309 310 310 311 314 316 315 315 315 314 318 318 308 295 308 313 313 316 315 310 309 308 309 308 303 302 300 301 300 298 300 298 298 297 298 299 301 304 305 307 306 307 307
306 306 308 309 309 310 312 315 316 316 316 317 318 313 302 298 310 313 314 315 315 311 306 308 308 307 305 300 304 302 296 297 298 297 296 299 294 295 299 303 303 302 302 303 304
306 307 308 309 309 310 311 315 316 317 317 317 317 308 296 309 311 311 312 314 313 312 309 309 311 308 304 304 301 296 297 290 298 298 297 296 291 295 299 299 300 300 300 300 301
306 307 308 308 308 310 311 314 317 317 317 316 309 304 295 310 307 309 311 311 310 310 308 310 308 303 302 295 291 295 290 290 292 297 295 296 293 296 299 298 298 298 299 299 300
306 306 307 308 309 312 312 313 315 315 314 313 311 295 298 301 307 308 308 312 306 305 304 302 299 295 295 293 287 290 291 290 291 296 296 293 291 296 297 297 296 297 298 298 299
305 306 306 307 309 311 306 303 300 298 303 298 297 297 301 306 309 305 309 306 305 301 293 297 292 288 294 298 296 297 294 291 294 297 294 293 294 295 296 295 295 297 298 298 299
305 305 306 306 307 307 302 297 296 297 294 303 301 300 303 305 298 302 307 299 297 292 295 292 288 295 299 298 295 295 294 291 295 295 294 293 293 297 296 295 296 298 298 298 298
304 304 305 308 306 302 298 296 301 302 294 299 302 299 300 302 297 298 302 299 294 292 293 290 293 298 296 294 293 291 290 292 292 293 293 289 287 291 296 297 297 298 300 300 299
304 304 305 307 301 300 296 299 300 302 284 291 297 299 300 300 295 303 302 298 296 292 293 292 296 295 293 292 293 288 295 293 293 290 282 290 281 286 293 295 296 297 298 299 299
303 304 305 305 297 295 299 299 299 301 270 293 296 305 300 293 295 297 303 298 291 293 293 290 290 291 290 292 294 290 294 292 292 288 288 285 280 286 291 292 294 296 297 298 299
302 303 304 298 296 297 300 299 298 278 269 286 294 293 291 293 293 297 297 299 297 292 293 292 294 293 293 295 295 295 292 291 289 287 275 284 283 281 287 292 294 295 296 298 298
301 302 300 299 291 299 299 296 279 272 286 284 288 291 290 287 290 291 290 288 286 283 283 288 289 292 293 290 293 292 287 276 275 279 277 286 283 284 292 294 295 295 295 296 298
300 301 299 297 297 298 295 284 270 280 282 291 289 292 285 288 287 288 286 284 289 287 283 282 279 289 293 291 289 288 287 279 274 276 278 284 280 285 292 292 292 293 295 296 296
300 292 292 293 297 297 287 273 273 281 289 288 289 285 284 289 288 285 285 284 288 288 283 281 282 290 292 293 293 287 285 289 282 279 278 280 284 289 288 289 289 291 293 294 295
288 288 289 294 297 293 282 281 281 289 290 291 282 286 282 283 283 284 284 287 286 290 290 286 281 288 290 292 291 289 291 282 282 271 273 278 279 283 286 288 288 288 290 290 291
287 283 290 294 294 286 275 281 284 291 290 288 287 286 286 285 285 283 284 287 289 289 290 289 285 282 288 286 286 286 285 287 285 282 278 276 279 286 287 289 288 288 291 290 290
284 273 290 293 276 281 278 275 288 288 290 289 289 288 285 288 287 285 283 286 291 290 286 289 286 278 282 289 291 290 287 288 281 279 280 280 282 289 289 289 290 289 291 290 291
279 277 289 289 269 264 275 278 283 285 286 288 286 289 289 287 284 288 289 292 292 290 288 290 280 271 277 282 286 285 288 289 287 287 282 279 281 288 287 288 288 288 290 290 288
278 269 276 279 282 277 271 273 275 285 286 289 288 289 286 284 287 282 285 291 291 290 295 294 286 281 277 279 284 282 286 288 287 282 283 283 286 288 287 287 287 288 289 289 289
277 270 274 266 271 272 277 275 275 274 281 285 283 285 285 278 281 283 288 288 290 293 290 290 280 282 284 284 284 283 283 285 285 286 283 286 286 290 292 292 288 289 288 287 287
274 272 273 272 277 273 274 268 275 279 278 274 275 283 285 281 282 282 283 287 288 288 287 290 281 282 281 285 283 282 285 285 285 285 287 287 287 294 293 291 291 291 288 288 288
283 281 278 276 275 272 271 275 277 280 281 281 281 279 278 282 283 286 287 287 287 284 283 283 283 281 278 283 280 278 282 284 285 286 286 283 288 293 291 290 293 295 288 289 289
Wind_Speed
14 13 13 6 7 10 15 8 10 10 8 11 8 6 4 2 5 1 1 2 2 4 4 7 3 2 5 3 4 4 5 2 3 2 3 5 5 4 6 7 6 5 4 2 9
15 16 14 6 10 14 18 3 12 9 8 10 8 5 3 3 3 3 4 2 3 4 3 5 4 4 4 3 4 4 4 3 2 1 4 5 5 4 6 4 5 6 5 7 7
16 17 15 13 15 13 18 12 12 10 7 6 7 4 3 4 0 3 5 2 5 1 4 5 6 4 4 2 4 3 3 3 2 2 3 4 4 3 10 5 1 6 5 6 8
17 17 14 17 17 17 8 14 11 8 7 6 5 4 4 2 6 2 2 3 4 5 6 9 5 3 3 2 3 5 7 5 1 4 2 3 5 5 5 4 8 7 7 6 8
17 16 16 16 17 18 18 10 8 6 5 3 6 7 1 4 3 1 2 2 4 5 3 3 5 3 5 2 3 5 2 6 6 7 6 7 5 5 4 7 8 9 10 9 8
15 15 16 16 15 17 16 15 6 5 3 1 7 4 3 6 5 5 4 2 2 3 4 5 3 7 6 3 4 3 7 4 5 5 3 5 3 3 3 6 8 9 9 8 8
15 15 14 12 12 14 12 12 12 3 4 4 5 1 4 4 7 0 4 1 2 3 3 2 2 3 5 5 1 2 4 5 4 1 2 4 0 3 8 8 7 8 7 7 5
15 15 16 17 14 14 11 11 10 6 6 2 2 3 4 4 6 3 2 3 5 5 4 5 7 6 4 5 4 4 4 3 2 4 2 3 4 3 8 10 9 8 6 7 4
13 13 14 15 14 11 11 10 7 4 5 2 2 1 3 4 4 3 1 1 3 5 5 3 5 4 2 6 4 4 2 0 2 7 4 4 4 6 8 8 9 9 8 7 6
14 14 15 15 12 12 9 5 4 5 3 4 4 6 4 3 2 5 3 5 3 2 4 4 4 3 2 1 3 5 4 3 3 5 6 5 8 6 8 8 8 9 8 8 8
14 14 13 12 12 15 6 5 4 6 7 5 3 5 3 2 3 4 4 1 2 2 3 2 5 4 9 5 4 7 4 4 4 2 6 7 8 8 10 8 9 8 10 10 9
14 14 15 11 11 6 4 5 2 1 6 6 7 6 4 3 4 4 6 2 2 4 2 5 2 5 4 6 5 5 5 4 1 2 1 6 11 10 8 11 12 13 14 13 10
14 14 15 12 9 6 6 3 1 0 4 4 4 4 2 4 4 4 3 1 3 2 4 5 3 4 6 4 3 2 2 4 2 3 2 4 8 9 9 13 10 11 15 15 17
14 14 13 15 4 1 4 2 2 1 5 3 3 3 3 3 4 1 4 1 2 7 4 4 6 7 7 3 3 2 5 1 5 2 3 4 8 6 5 12 14 17 15 15 14
13 15 12 8 2 3 2 1 3 1 6 3 3 4 3 4 2 5 3 4 1 2 5 6 3 5 4 4 4 2 3 3 2 1 3 3 1 9 5 6 12 15 14 12 16
13 15 11 5 3 0 4 4 1 8 1 3 4 2 2 3 3 3 4 4 2 3 1 4 2 1 4 4 4 5 4 1 3 2 2 8 7 5 5 7 5 7 12 12 14
11 11 6 2 2 7 5 2 7 7 4 1 1 3 1 2 3 1 1 1 3 4 2 3 2 1 2 2 2 4 5 3 3 1 6 1 4 9 8 8 7 8 12 12 15
9 9 5 3 5 6 3 7 7 4 2 2 2 2 2 4 2 4 2 2 5 1 2 5 6 8 7 7 7 7 8 6 5 3 5 0 7 8 6 2 2 2 7 10 14
11 3 3 5 7 4 6 5 8 5 6 8 2 4 4 3 4 4 5 5 7 8 5 2 6 1 6 5 9 5 8 3 2 1 1 5 8 9 2 4 2 4 6 12 13
2 3 3 8 6 4 6 5 2 1 1 4 5 4 7 4 5 6 5 5 5 10 7 3 3 4 1 2 2 5 5 2 1 2 6 6 6 9 4 6 4 5 6 5 6
3 4 4 7 4 6 4 3 4 3 0 4 5 5 4 5 7 4 5 4 8 6 8 6 4 4 2 5 7 2 3 4 6 6 4 4 7 6 6 6 6 8 8 9 10
3 3 4 4 6 1 3 5 3 4 2 1 1 2 7 7 5 7 6 7 5 4 7 5 4 5 9 6 9 7 9 8 6 4 4 3 15 4 7 6 7 9 7 8 10
3 1 4 5 4 2 4 3 2 3 4 4 4 2 3 6 3 6 6 5 6 3 5 6 1 3 9 6 3 6 9 6 6 2 9 6 11 1 3 3 3 7 8 8 10
4 3 5 5 1 5 5 4 2 3 3 5 4 4 2 3 2 2 2 1 3 0 4 2 3 9 11 6 2 6 10 11 15 9 20 16 29 14 6 6 6 7 9 9 11
3 5 5 3 4 3 4 6 3 3 2 3 4 6 8 4 2 4 5 2 2 6 1 4 8 6 15 11 2 5 6 9 15 17 16 24 24 25 17 15 9 14 9 11 13
6 5 4 2 3 6 3 5 9 4 8 6 6 9 10 7 8 5 3 2 1 4 3 2 5 5 15 17 9 11 13 9 15 17 18 23 26 32 11 8 11 13 11 13 14
2 2 5 3 4 6 6 7 9 4 5 6 9 4 2 8 3 3 3 5 8 3 0 4 4 2 16 15 9 12 24 27 23 17 18 19 29 21 17 10 14 17 12 17 20
Wind_Direction
28 11 359 346 19 1 333 334 150 156 147 124 133 128 117 83 323 98 145 27 325 346 331 277 223 340 20 26 343 357 69 145 209 96 137 32 109 35 44 76 51 41 64 310 118
25 15 9 34 20 6 325 333 138 153 145 144 143 156 126 65 261 102 308 258 331 25 307 203 154 65 36 8 5 57 103 132 12 19 89 64 55 94 78 59 73 83 55 46 55
26 21 24 35 27 352 330 149 132 142 125 128 151 153 86 35 257 70 324 350 10 338 255 284 122 83 49 355 348 25 96 129 8 53 28 88 51 47 133 68 38 140 114 58 73
25 22 22 36 25 356 25 103 111 117 127 126 164 114 73 327 103 346 314 16 3 323 300 96 106 71 79 58 324 105 65 102 123 14 34 73 103 55 43 133 125 120 122 108 89
21 18 19 38 28 353 24 54 93 95 115 165 159 139 194 71 72 210 82 34 2 323 273 137 162 139 102 73 16 74 82 62 89 71 65 62 74 116 109 133 135 133 119 116 115
22 18 16 36 21 355 14 28 71 78 76 125 158 134 274 78 308 293 133 145 252 270 20 0 163 106 94 87 63 45 86 93 88 87 67 102 156 76 204 155 151 135 112 101 94
21 16 15 32 24 357 10 16 25 107 66 125 149 338 357 123 319 91 148 274 314 289 70 2 48 99 128 106 151 75 79 64 31 32 103 115 291 216 161 149 151 120 115 98 96
20 13 14 15 0 3 359 13 31 78 67 112 78 332 57 321 333 110 257 350 360 22 61 345 74 94 89 120 66 62 57 120 208 161 167 175 253 174 178 158 171 158 141 134 146
15 20 17 5 8 1 343 17 31 81 103 116 14 155 41 334 46 339 44 67 16 34 353 354 62 94 63 100 61 24 137 185 204 204 148 207 234 171 183 183 184 167 159 163 167
17 14 13 13 358 2 12 40 5 76 309 238 256 63 341 72 357 331 337 158 70 75 24 17 70 81 357 101 166 151 168 196 239 224 195 201 243 178 195 193 199 182 168 172 176
14 9 9 15 9 7 20 16 25 22 25 69 47 77 52 356 3 324 343 108 78 32 107 286 83 183 218 197 117 147 145 172 201 231 195 244 266 228 200 203 213 196 174 183 183
9 7 4 6 17 25 52 73 61 23 71 21 80 48 38 8 79 347 10 94 114 176 131 34 214 222 154 134 100 123 159 202 107 92 139 285 274 266 197 214 205 193 191 187 177
8 4 0 1 339 44 74 65 258 337 87 11 12 68 349 356 111 190 23 258 175 208 180 165 254 156 107 79 102 289 183 203 190 157 280 348 280 243 227 208 208 213 199 192 177
7 360 359 348 31 158 56 146 263 262 78 342 25 16 349 305 51 326 36 346 245 205 207 246 265 131 129 169 164 293 223 49 115 88 264 126 291 308 245 222 204 207 198 192 179
7 2 346 17 165 70 309 216 253 183 79 359 29 287 343 42 155 15 350 355 4 264 103 253 142 126 123 191 180 202 100 138 201 267 303 192 6 269 255 255 222 217 207 192 181
6 5 7 10 51 31 297 253 153 41 31 4 328 83 76 17 42 4 360 0 256 352 355 203 230 72 184 205 202 165 103 11 16 89 336 221 170 268 225 209 249 205 207 180 172
8 5 30 17 330 314 314 21 43 99 270 3 31 133 216 149 88 146 154 274 174 89 274 342 212 181 88 145 99 138 88 353 340 243 240 313 182 247 265 248 222 218 199 180 170
347 348 50 31 323 334 18 51 83 234 231 69 157 128 230 131 183 190 169 227 282 61 151 179 300 159 193 186 182 184 162 162 219 226 267 242 240 254 241 156 34 178 197 167 167
334 346 29 321 336 359 66 68 189 204 153 150 93 133 217 172 108 156 210 207 209 180 196 231 254 187 160 172 143 228 219 199 354 359 353 241 290 297 141 242 242 231 157 179 174
46 24 342 318 343 30 75 149 171 103 282 155 159 173 178 203 163 180 224 227 212 203 165 253 298 359 355 73 291 158 178 154 356 259 255 266 248 239 278 275 229 238 197 164 144
42 66 282 333 11 46 138 160 199 109 135 176 213 167 189 181 184 203 228 267 201 213 177 173 145 278 117 194 191 153 211 206 164 178 220 293 262 218 225 211 194 220 199 172 172
87 70 295 19 55 46 171 191 308 141 63 284 316 259 206 184 200 203 234 224 217 176 210 204 169 217 231 232 209 211 215 194 186 231 233 234 262 231 212 226 163 199 206 178 177
101 176 321 75 131 276 318 301 267 133 170 178 230 250 341 214 215 215 208 226 223 197 198 174 255 30 330 331 258 221 223 218 250 211 221 199 262 345 60 155 167 187 206 186 174
89 85 332 35 107 144 144 251 242 232 202 179 214 65 307 247 314 251 268 286 27 225 82 76 171 188 222 209 101 206 210 216 219 233 241 235 261 238 265 232 236 226 210 194 189
75 234 184 209 280 176 153 166 169 205 251 211 204 187 198 227 292 232 229 295 52 355 336 128 224 228 253 269 270 228 269 268 239 239 236 247 248 258 245 263 220 226 202 194 197
133 130 349 178 115 124 224 238 189 198 153 247 168 198 193 198 188 193 130 153 265 40 341 154 251 193 264 265 237 258 273 248 253 264 260 257 261 259 255 237 245 240 198 203 207
217 87 107 206 142 126 221 207 203 175 236 190 194 161 187 228 208 294 198 181 182 173 22 313 326 281 251 255 257 253 237 242 246 240 234 248 252 272 263 240 252 260 186 208 210